Location: Paddlesworth
(51.1000°N, 1.1333°E)
Time: 22:10:19
(UTC+00:00)

IGS 5A - Pass Details

Date: 11 May 2021
Orbit: 583 x 588 km, 97.6° (Epoch: 06 May)

Event Time Altitude Azimuth Distance (km) Brightness Sun altitude
Exits shadow 20:24:31 - 164° (SSE) 2,348 6.0 -7.3°
Reaches altitude 10° 20:25:36 10° 165° (SSE) 1,902 5.6 -7.4°
Maximum altitude 20:29:44 89° 88° (E) 592 3.5 -7.9°
Drops below altitude 10° 20:33:54 10° 347° (NNW) 1,919 7.0 -8.4°
Sets 20:36:04 0° 347° (NNW) 2,825 8.0 -8.6°
